Back to catalog

COSMOS 1823 DEB

AliveLEO
NORAD 26111·DEBRIS·🇷🇺 Russia

Launched Feb 20, 1987 from Plesetsk Cosmodrome

Loading…

Next Passes (next 24 hours)

TLE

FreshSource: Space-Track

Epoch: Sep 14, 2026, 10:28 UTC

1 26111U 87020DS  26257.43661314  .00000045  00000-0  44939-3 0  9999
2 26111  73.5977 260.6668 0029839  96.8991  56.5797 12.42974807793606

Track COSMOS 1823 DEB in real time with AllMySat

Download on the App Store